KB1DML-3 Weather Reports


Display with metric or nautical units.
time (UTC)temp
F
wind
direction
speed
MPH
gust
MPH
rain 1hr
in
rain 24hr
in
rain mn
in
humidity
%
barometer
mb
20260905064515 67 315 11.0 15.0 0.00 0.00 0.00 77 1006.0
20260905064016 67 315 11.0 17.0 0.00 0.00 0.00 77 1006.0
20260905063515 67 338 12.0 16.0 0.00 0.00 0.00 77 1005.8
20260905063015 67 315 12.0 15.0 0.00 0.00 0.00 77 1005.8
20260905062515 68 338 12.0 15.0 0.00 0.00 0.00 77 1005.9
20260905062015 68 315 12.0 16.0 0.00 0.00 0.00 77 1005.8
20260905061515 68 315 12.0 17.0 0.00 0.00 0.00 77 1005.9
20260905061015 68 315 11.0 15.0 0.00 0.00 0.00 77 1005.9
20260905060536 68 315 10.0 15.0 0.00 0.00 0.00 77 1005.9
20260905060015 68 315 10.0 14.0 0.00 0.00 0.00 77 1005.9
20260905055536 68 315 11.0 15.0 0.00 0.00 0.00 77 1005.9
20260905055016 68 315 10.0 14.0 0.00 0.00 0.00 76 1005.8
20260905054515 68 315 10.0 14.0 0.00 0.00 0.00 76 1006.0
20260905054016 68 315 11.0 14.0 0.00 0.00 0.00 76 1006.0
20260905053516 68 315 10.0 14.0 0.00 0.00 0.00 76 1006.0
20260905053016 68 315 9.0 14.0 0.00 0.00 0.00 76 1006.0
20260905052517 68 315 11.0 17.0 0.00 0.00 0.00 76 1005.9
20260905052017 68 315 11.0 15.0 0.00 0.00 0.00 76 1005.8
20260905051517 68 315 11.0 15.0 0.00 0.00 0.00 76 1005.8
20260905051018 68 315 11.0 15.0 0.00 0.00 0.00 76 1005.9
20260905050517 68 315 10.0 13.0 0.00 0.00 0.00 76 1005.8
20260905050017 68 315 9.0 13.0 0.00 0.00 0.00 76 1005.9
20260905045517 68 315 10.0 13.0 0.00 0.00 0.00 76 1005.9
20260905045018 69 315 11.0 15.0 0.00 0.00 0.00 76 1005.8
20260905044517 69 338 11.0 15.0 0.00 0.00 0.00 76 1005.8
20260905044017 69 338 11.0 14.0 0.00 0.00 0.00 76 1005.9
20260905043517 69 315 11.0 13.0 0.00 0.00 0.00 76 1005.9
20260905043017 69 338 10.0 13.0 0.00 0.00 0.00 76 1006.0
20260905042517 69 338 10.0 13.0 0.00 0.00 0.00 76 1005.9
20260905042018 69 338 10.0 13.0 0.00 0.00 0.00 76 1006.0
20260905041518 69 338 10.0 13.0 0.00 0.00 0.00 76 1005.9
20260905041017 69 338 10.0 14.0 0.00 0.00 0.00 75 1005.9
20260905040517 69 338 12.0 14.0 0.00 0.00 0.00 74 1005.9
20260905040017 70 338 12.0 16.0 0.00 0.00 0.00 74 1005.9
20260905035516 70 338 13.0 16.0 0.00 0.00 0.00 74 1005.8
20260905035055 70 315 13.0 16.0 0.00 0.00 0.00 74 1006.0
20260905034537 70 315 12.0 15.0 0.00 0.00 0.00 74 1006.0
20260905034016 70 315 11.0 15.0 0.00 0.00 0.00 75 1006.0
20260905033516 70 315 9.0 13.0 0.00 0.00 0.00 75 1006.0
20260905033016 70 315 9.0 14.0 0.00 0.00 0.00 75 1006.1
20260905032516 70 315 11.0 14.0 0.00 0.00 0.00 75 1006.1
20260905032016 70 315 11.0 16.0 0.00 0.00 0.00 75 1006.0
20260905031516 70 315 11.0 14.0 0.00 0.00 0.00 76 1006.0
20260905031016 70 315 10.0 13.0 0.00 0.00 0.00 76 1006.1
20260905030515 69 315 11.0 14.0 0.00 0.00 0.00 77 1006.0
20260905030016 69 315 10.0 13.0 0.00 0.00 0.00 78 1006.0
20260905025515 69 315 8.0 11.0 0.00 0.00 0.00 79 1006.0
20260905025016 69 315 7.0 10.0 0.00 0.00 0.00 80 1006.0
20260905024515 69 315 6.0 11.0 0.00 0.00 0.00 80 1005.9
20260905024036 68 315 6.0 10.0 0.00 0.00 0.00 82 1006.1
20260905023516 68 315 6.0 9.0 0.00 0.00 0.00 83 1006.1
20260905023016 67 315 5.0 10.0 0.00 0.00 0.00 84 1006.2
20260905022515 67 315 4.0 9.0 0.00 0.00 0.00 85 1006.3
20260905022015 68 293 3.0 6.0 0.00 0.00 0.00 86 1006.4
20260905021536 68 225 2.0 4.0 0.00 0.00 0.00 86 1006.4
20260905021035 68 225 2.0 4.0 0.00 0.00 0.00 86 1006.4
20260905020515 68 225 2.0 3.0 0.00 0.00 0.00 86 1006.4
20260905020016 68 248 2.0 4.0 0.00 0.00 0.00 86 1006.5
20260905015516 68 248 3.0 7.0 0.00 0.00 0.00 86 1006.5
20260905015015 68 248 4.0 6.0 0.00 0.00 0.00 86 1006.6
20260905014555 68 270 3.0 4.0 0.00 0.00 0.00 86 1006.5
20260905014036 68 270 4.0 6.0 0.00 0.00 0.00 86 1006.5
20260905013515 68 270 4.0 6.0 0.00 0.00 0.00 86 1006.5
20260905013015 68 270 4.0 6.0 0.00 0.00 0.00 86 1006.6
20260905012515 68 293 4.0 6.0 0.00 0.00 0.00 86 1006.7
20260905012036 68 293 3.0 5.0 0.00 0.00 0.00 87 1006.7
20260905011515 68 315 3.0 5.0 0.00 0.00 0.00 87 1006.7
20260905011016 68 315 3.0 6.0 0.00 0.00 0.00 87 1006.7
20260905010535 68 315 3.0 5.0 0.00 0.00 0.00 87 1006.5
20260905010016 68 315 3.0 5.0 0.00 0.00 0.00 87 1006.5
20260905005516 68 315 3.0 5.0 0.00 0.00 0.00 87 1006.5
20260905005015 68 270 5.0 7.0 0.00 0.00 0.00 88 1006.7
20260905004515 68 270 5.0 7.0 0.00 0.00 0.00 88 1006.6
20260905004016 68 248 7.0 9.0 0.00 0.00 0.00 88 1006.7
20260905003515 68 248 7.0 10.0 0.00 0.00 0.00 88 1006.7
20260905003035 68 248 7.0 9.0 0.00 0.00 0.00 88 1006.7
20260905002516 68 248 9.0 11.0 0.00 0.00 0.00 87 1006.7
20260905002017 68 248 8.0 11.0 0.00 0.00 0.00 87 1006.6
20260905001517 68 248 8.0 10.0 0.00 0.00 0.00 87 1006.6
20260905001017 68 248 9.0 10.0 0.00 0.00 0.00 87 1006.6
20260905000538 68 248 8.0 10.0 0.00 0.00 0.00 87 1006.5
20260905000017 68 248 8.0 11.0 0.00 0.00 0.00 87 1006.3
20260904235517 68 248 9.0 11.0 0.00 0.00 0.00 87 1006.3
20260904235017 68 248 10.0 12.0 0.00 0.00 0.00 87 1006.3
20260904234518 68 248 9.0 11.0 0.00 0.00 0.00 87 1006.2
20260904234037 68 248 9.0 10.0 0.00 0.00 0.00 87 1006.1
20260904233518 68 248 8.0 11.0 0.00 0.00 0.00 87 1006.0
20260904233017 68 248 9.0 11.0 0.00 0.00 0.00 87 1005.9
20260904232518 69 248 8.0 10.0 0.00 0.00 0.00 87 1005.9
20260904232017 68 248 8.0 11.0 0.00 0.00 0.00 87 1006.0
20260904231517 69 248 9.0 11.0 0.00 0.00 0.00 87 1006.0
20260904231017 69 248 9.0 11.0 0.00 0.00 0.00 87 1006.1
20260904230538 69 248 8.0 11.0 0.00 0.00 0.00 87 1006.1
20260904230017 69 225 8.0 12.0 0.00 0.00 0.00 87 1006.1
20260904225517 69 225 8.0 12.0 0.00 0.00 0.00 87 1006.1
20260904225018 69 225 6.0 10.0 0.00 0.00 0.00 87 1006.1
20260904224537 69 225 8.0 10.0 0.00 0.00 0.00 86 1006.1
20260904224017 69 225 6.0 11.0 0.00 0.00 0.00 86 1006.0
20260904223518 69 225 7.0 11.0 0.00 0.00 0.00 86 1006.0
20260904223038 69 225 7.0 10.0 0.00 0.00 0.00 86 1006.0
20260904222518 70 225 8.0 10.0 0.00 0.00 0.00 86 1006.0
20260904222017 70 248 8.0 10.0 0.00 0.00 0.00 86 1006.0
20260904221517 70 225 6.0 9.0 0.00 0.00 0.00 86 1006.0
20260904221017 70 225 4.0 8.0 0.00 0.00 0.00 86 1006.0
20260904220517 70 225 4.0 7.0 0.00 0.00 0.00 86 1005.9
20260904220017 70 225 4.0 8.0 0.00 0.00 0.00 86 1005.9
20260904215518 70 203 6.0 8.0 0.00 0.00 0.00 86 1006.0
20260904215017 70 203 4.0 6.0 0.00 0.00 0.00 85 1006.1
20260904214517 70 203 4.0 6.0 0.00 0.00 0.00 85 1006.1
20260904214018 70 203 4.0 6.0 0.00 0.00 0.00 85 1006.0
20260904213517 70 203 4.0 8.0 0.00 0.00 0.00 85 1006.0
20260904213017 70 225 4.0 8.0 0.00 0.00 0.00 86 1005.9
20260904212517 70 203 4.0 7.0 0.00 0.00 0.00 85 1005.9
20260904212017 70 225 4.0 7.0 0.00 0.00 0.00 85 1006.0
20260904211517 70 225 4.0 7.0 0.00 0.00 0.00 85 1006.1
20260904211037 70 203 5.0 7.0 0.00 0.00 0.00 85 1006.0
20260904210518 70 203 5.0 7.0 0.00 0.00 0.00 85 1006.1
20260904210017 70 203 5.0 8.0 0.00 0.00 0.00 85 1006.1
20260904205537 70 203 6.0 7.0 0.00 0.00 0.00 85 1006.0
20260904205017 70 203 6.0 8.0 0.00 0.00 0.00 85 1006.0
20260904204517 70 203 7.0 8.0 0.00 0.00 0.00 85 1006.1
20260904204017 70 203 7.0 9.0 0.00 0.00 0.00 85 1006.1
20260904203517 70 203 7.0 9.0 0.00 0.00 0.00 85 1006.0
20260904203017 70 203 5.0 8.0 0.00 0.00 0.00 85 1006.1
20260904202517 70 180 4.0 6.0 0.00 0.00 0.00 85 1006.1
20260904202017 70 180 5.0 7.0 0.00 0.00 0.00 85 1006.1
20260904201517 70 203 5.0 7.0 0.00 0.00 0.00 85 1006.3
20260904201037 70 135 4.0 6.0 0.00 0.00 0.00 85 1006.3
20260904200517 70 203 7.0 8.0 0.00 0.00 0.00 85 1006.1
20260904200018 70 203 7.0 8.0 0.00 0.00 0.00 85 1005.9
20260904195517 70 180 7.0 8.0 0.00 0.00 0.00 84 1005.9
20260904195017 70 180 5.0 7.0 0.00 0.00 0.00 85 1006.0
20260904194517 70 203 6.0 8.0 0.00 0.00 0.00 85 1006.0
20260904194017 70 180 6.0 7.0 0.00 0.00 0.00 85 1005.8
20260904193517 70 203 6.0 9.0 0.00 0.00 0.00 85 1006.0
20260904193017 70 203 8.0 9.0 0.00 0.00 0.00 85 1005.8
20260904192558 70 180 7.0 9.0 0.00 0.00 0.00 85 1005.9
20260904192017 70 180 6.0 8.0 0.00 0.00 0.00 84 1006.0
20260904191517 70 180 6.0 8.0 0.00 0.00 0.00 84 1006.1
20260904191017 70 180 7.0 9.0 0.00 0.00 0.00 84 1006.1
20260904190517 70 180 7.0 9.0 0.00 0.00 0.00 84 1006.3
20260904190017 70 180 6.0 9.0 0.00 0.00 0.00 84 1006.3
20260904185517 70 180 6.0 9.0 0.00 0.00 0.00 84 1006.4
20260904185037 69 180 7.0 9.0 0.00 0.00 0.00 85 1006.3
20260904184516 69 180 8.0 10.0 0.00 0.00 0.00 85 1006.3
20260904184038 70 180 8.0 10.0 0.00 0.00 0.00 85 1006.3
20260904183517 69 180 7.0 10.0 0.00 0.00 0.00 85 1006.3
20260904183017 69 180 8.0 11.0 0.00 0.00 0.00 85 1006.3
20260904182517 69 180 8.0 10.0 0.00 0.00 0.00 85 1006.3
20260904182017 70 203 9.0 10.0 0.00 0.00 0.00 84 1006.4
20260904181517 70 203 9.0 11.0 0.00 0.00 0.00 84 1006.3
20260904181017 70 203 7.0 10.0 0.00 0.00 0.00 85 1006.4
20260904180517 69 180 7.0 9.0 0.00 0.00 0.00 85 1006.4
20260904180017 69 180 8.0 10.0 0.00 0.00 0.00 84 1006.5
20260904175537 70 180 7.0 10.0 0.00 0.00 0.00 84 1006.4
20260904175017 70 180 7.0 9.0 0.00 0.00 0.00 84 1006.4
20260904174517 70 180 7.0 10.0 0.00 0.00 0.00 84 1006.4
20260904174017 69 180 7.0 9.0 0.00 0.00 0.00 83 1006.4
20260904173517 70 180 6.0 7.0 0.00 0.00 0.00 83 1006.6
20260904173017 70 180 6.0 9.0 0.00 0.00 0.00 83 1006.6
20260904172516 70 158 6.0 8.0 0.00 0.00 0.00 82 1006.7
20260904172058 71 158 5.0 7.0 0.00 0.00 0.00 83 1006.7
20260904171517 71 158 4.0 6.0 0.00 0.00 0.00 83 1006.8
20260904171017 71 180 4.0 6.0 0.00 0.00 0.00 82 1006.7
20260904170516 71 158 4.0 6.0 0.00 0.00 0.00 83 1006.7
20260904170017 71 158 3.0 5.0 0.00 0.00 0.00 83 1006.6
20260904165517 70 158 4.0 7.0 0.00 0.00 0.00 83 1006.6
20260904165016 70 158 5.0 7.0 0.00 0.00 0.00 84 1006.7
20260904164537 70 158 6.0 8.0 0.00 0.00 0.00 84 1006.7
20260904164017 70 158 5.0 8.0 0.00 0.00 0.00 84 1006.8
20260904163537 70 158 7.0 9.0 0.00 0.00 0.00 83 1006.7
20260904163016 70 158 6.0 9.0 0.00 0.00 0.00 83 1006.7
20260904162517 70 180 5.0 7.0 0.00 0.00 0.00 83 1006.8
20260904162016 70 180 5.0 7.0 0.00 0.00 0.00 83 1006.9
20260904161516 70 180 5.0 7.0 0.00 0.00 0.00 83 1006.9
20260904161017 70 158 4.0 6.0 0.00 0.00 0.00 83 1006.9
20260904160536 70 113 4.0 6.0 0.00 0.00 0.00 84 1006.8
20260904160017 70 113 4.0 7.0 0.00 0.00 0.00 84 1006.9
20260904155517 69 113 5.0 7.0 0.00 0.00 0.00 85 1007.0
20260904155057 69 90 6.0 9.0 0.00 0.00 0.00 84 1007.0
20260904154537 69 90 6.0 10.0 0.00 0.00 0.00 84 1007.1
20260904154017 69 68 7.0 9.0 0.00 0.00 0.00 82 1007.0
20260904153516 70 68 7.0 10.0 0.00 0.00 0.00 82 1007.1
20260904153016 71 68 5.0 10.0 0.00 0.00 0.00 82 1007.1
20260904152517 72 45 5.0 9.0 0.00 0.00 0.00 82 1007.0
20260904152016 71 45 5.0 10.0 0.00 0.00 0.00 83 1007.0
20260904151517 71 23 8.0 11.0 0.00 0.00 0.00 83 1007.1
20260904151016 71 23 8.0 12.0 0.00 0.00 0.00 84 1007.2
20260904150517 71 23 8.0 12.0 0.00 0.00 0.00 85 1007.3
20260904150016 71 23 8.0 12.0 0.00 0.00 0.00 86 1007.3
20260904145516 71 23 8.0 11.0 0.00 0.00 0.00 86 1007.3
20260904145016 70 23 7.0 11.0 0.00 0.00 0.00 87 1007.3
20260904144516 70 23 7.0 11.0 0.00 0.00 0.00 87 1007.4
20260904144017 70 45 8.0 11.0 0.00 0.00 0.00 88 1007.4
20260904143517 70 45 8.0 11.0 0.00 0.00 0.00 88 1007.4
20260904143017 69 23 7.0 10.0 0.00 0.00 0.00 88 1007.5
20260904142516 69 23 7.0 10.0 0.00 0.00 0.00 88 1007.6
20260904142016 69 23 7.0 11.0 0.00 0.00 0.00 89 1007.6
20260904141516 69 23 9.0 11.0 0.00 0.00 0.00 89 1007.6
20260904141017 69 23 6.0 10.0 0.00 0.00 0.00 90 1007.8
20260904140516 69 23 6.0 10.0 0.00 0.00 0.00 90 1007.7
20260904140057 68 23 7.0 10.0 0.00 0.00 0.00 90 1007.6
20260904135517 68 23 7.0 10.0 0.00 0.00 0.00 90 1007.7
20260904135016 68 23 6.0 9.0 0.00 0.00 0.00 90 1007.7
20260904134537 68 23 5.0 8.0 0.00 0.00 0.00 90 1007.8
20260904134016 68 23 6.0 9.0 0.00 0.00 0.00 91 1007.8
20260904133516 67 338 6.0 8.0 0.00 0.00 0.00 90 1007.9
20260904133016 67 338 5.0 8.0 0.00 0.00 0.00 91 1007.8
20260904132516 67 338 7.0 10.0 0.00 0.00 0.00 91 1007.7
20260904132017 67 338 5.0 8.0 0.00 0.00 0.00 91 1007.7
20260904131537 67 338 4.0 8.0 0.00 0.00 0.00 91 1007.8
20260904131018 67 338 4.0 7.0 0.00 0.00 0.00 91 1007.8
20260904130537 67 23 3.0 4.0 0.00 0.00 0.00 91 1007.7
20260904130037 67 338 2.0 4.0 0.00 0.08 0.00 91 1007.7
20260904125516 67 270 2.0 3.0 0.00 0.08 0.00 91 1007.8
20260904125016 66 270 1.0 3.0 0.00 0.08 0.00 91 1007.8
20260904124516 66 248 2.0 4.0 0.00 0.08 0.00 91 1007.8
20260904124016 67 270 2.0 3.0 0.00 0.08 0.00 91 1007.8
20260904123516 66 315 2.0 3.0 0.00 0.08 0.00 91 1007.8
20260904123016 66 270 3.0 6.0 0.00 0.08 0.00 91 1007.8
20260904122516 66 293 3.0 6.0 0.00 0.08 0.00 91 1007.8
20260904122016 66 293 3.0 6.0 0.00 0.08 0.00 91 1007.8
20260904121557 66 270 2.0 4.0 0.00 0.08 0.00 91 1007.8
20260904121016 66 248 2.0 4.0 0.00 0.08 0.00 91 1007.9
20260904120517 66 248 3.0 5.0 0.00 0.08 0.00 91 1007.8
20260904120016 66 248 1.0 4.0 0.00 0.22 0.00 91 1007.8
20260904115516 66 248 2.0 3.0 0.00 0.22 0.00 91 1007.9
20260904115016 66 270 2.0 3.0 0.00 0.22 0.00 91 1007.9
20260904114516 66 270 2.0 4.0 0.00 0.22 0.00 91 1007.8
20260904114016 66 315 2.0 3.0 0.00 0.22 0.00 91 1007.8
20260904113516 66 338 2.0 3.0 0.00 0.22 0.00 91 1007.8
20260904113017 66 338 2.0 3.0 0.00 0.22 0.00 91 1007.9
20260904112516 66 338 2.0 3.0 0.00 0.22 0.00 91 1007.9
20260904112016 66 315 2.0 3.0 0.00 0.22 0.00 91 1007.9
20260904111516 66 315 1.0 3.0 0.00 0.22 0.00 91 1007.8
20260904111036 66 315 2.0 3.0 0.00 0.22 0.00 91 1007.8
20260904110557 66 315 2.0 3.0 0.00 0.22 0.00 91 1007.8
20260904110017 66 293 3.0 6.0 0.00 0.27 0.00 91 1007.8
20260904105517 66 293 3.0 4.0 0.00 0.27 0.00 91 1007.7
20260904105037 66 315 2.0 3.0 0.00 0.27 0.00 91 1007.6
20260904104516 66 338 1.0 2.0 0.00 0.27 0.00 91 1007.6
20260904104016 66 315 1.0 2.0 0.00 0.27 0.00 91 1007.6
20260904103516 66 315 1.0 3.0 0.00 0.27 0.00 91 1007.5
20260904103016 66 315 2.0 3.0 0.00 0.27 0.00 91 1007.4
20260904102516 66 23 3.0 4.0 0.00 0.27 0.00 91 1007.4
20260904102016 66 23 2.0 4.0 0.00 0.27 0.00 91 1007.4
20260904101516 66 23 2.0 3.0 0.00 0.27 0.00 91 1007.3
20260904101016 66 338 1.0 3.0 0.00 0.27 0.00 91 1007.3
20260904100537 66 0 1.0 1.0 0.00 0.27 0.00 91 1007.4
20260904100016 66 315 1.0 2.0 0.00 0.39 0.00 91 1007.5
20260904095516 66 248 1.0 3.0 0.00 0.39 0.00 91 1007.4
20260904095016 66 248 2.0 4.0 0.00 0.39 0.00 91 1007.5
20260904094516 66 225 2.0 3.0 0.00 0.39 0.00 91 1007.5
20260904094016 66 248 2.0 3.0 0.00 0.39 0.00 91 1007.5
20260904093517 66 270 1.0 2.0 0.00 0.39 0.00 91 1007.4
20260904093016 66 270 1.0 3.0 0.00 0.39 0.00 91 1007.4
20260904092516 66 248 1.0 2.0 0.00 0.39 0.00 91 1007.6
20260904092036 66 270 1.0 2.0 0.00 0.39 0.00 91 1007.5
20260904091515 66 293 2.0 3.0 0.00 0.39 0.00 91 1007.5
20260904091016 66 270 1.0 2.0 0.00 0.39 0.00 91 1007.5
20260904090516 66 315 1.0 2.0 0.00 0.39 0.00 91 1007.3
20260904090016 66 270 2.0 3.0 0.00 0.39 0.00 91 1007.4
20260904085516 65 270 2.0 3.0 0.00 0.39 0.00 91 1007.5
20260904085056 65 248 3.0 4.0 0.00 0.39 0.00 91 1007.6
20260904084516 65 270 2.0 3.0 0.00 0.39 0.00 91 1007.5
20260904084016 65 338 1.0 2.0 0.00 0.39 0.00 91 1007.6
20260904083516 65 338 1.0 2.0 0.00 0.39 0.00 91 1007.6
20260904083036 65 0 1.0 1.0 0.00 0.39 0.00 91 1007.6
20260904082516 65 45 1.0 2.0 0.00 0.39 0.00 91 1007.5
20260904082016 65 270 1.0 3.0 0.00 0.39 0.00 91 1007.6
20260904081516 65 248 2.0 4.0 0.00 0.39 0.00 91 1007.7
20260904081016 65 248 4.0 5.0 0.00 0.39 0.00 91 1007.7
20260904080516 65 248 3.0 4.0 0.00 0.39 0.00 91 1007.7
20260904080016 65 225 3.0 4.0 0.00 0.39 0.00 91 1007.7
20260904075516 65 225 3.0 4.0 0.00 0.39 0.00 91 1007.7
20260904075016 65 225 3.0 4.0 0.00 0.39 0.00 91 1007.7
20260904074536 65 248 3.0 5.0 0.00 0.39 0.00 91 1007.8
20260904074016 65 248 3.0 5.0 0.00 0.39 0.00 91 1007.8
20260904073516 65 270 2.0 3.0 0.00 0.39 0.00 91 1007.8
20260904073016 65 248 3.0 5.0 0.00 0.39 0.00 91 1007.8
20260904072516 65 248 4.0 6.0 0.00 0.39 0.00 91 1007.8
20260904072016 65 225 4.0 5.0 0.00 0.39 0.00 91 1007.9
20260904071516 65 248 2.0 4.0 0.00 0.39 0.00 91 1007.9
20260904071016 65 248 2.0 3.0 0.00 0.39 0.00 91 1007.9
20260904070515 65 270 2.0 3.0 0.00 0.39 0.00 91 1007.8
20260904070015 65 270 2.0 3.0 0.00 0.39 0.00 90 1007.9
20260904065516 65 270 2.0 3.0 0.00 0.39 0.00 90 1008.0
20260904065015 65 248 2.0 3.0 0.00 0.39 0.00 90 1008.0